SCP
3 3 2 1 1 1 0 0 0 0 0 0 0 0 0 0 0 0 0 0 0 0 0 0 0 0 1 1 1 1 1 1 1 1 1 1 0 0 0 0 0 0 0
2 2 2 1 0 0 0 0 0 0 0 0 0 0 0 0 0 0 0 0 0 0 0 0 0 0 0 1 1 1 1 1 1 1 1 1 0 0 0 0 0 0 0
1 1 1 0 0 0 0 0 0 0 0 0 0 0 0 0 0 0 0 0 0 0 0 0 0 0 0 0 1 1 1 1 1 1 1 1 0 0 0 1 0 0 0
0 0 0 0 0 0 0 0 0 0 0 0 0 0 0 0 0 0 0 0 0 0 0 0 0 0 0 0 0 0 0 0 1 1 1 1 1 0 0 1 1 1 1
0 0 0 0 0 0 0 0 0 0 1 1 1 1 1 1 1 1 1 1 1 0 0 0 0 0 0 0 0 0 0 0 0 1 1 1 0 0 0 1 1 1 1
0 0 0 0 0 0 0 0 0 1 1 1 1 1 1 1 1 1 1 1 1 1 1 1 0 0 0 0 0 0 0 0 0 0 0 0 0 0 0 0 1 1 1
0 0 0 0 0 0 0 0 0 1 1 1 1 1 2 1 1 1 1 1 1 1 0 0 0 0 0 0 0 0 0 0 0 0 0 0 0 0 0 0 1 1 1
0 0 0 0 0 0 0 0 0 1 1 1 1 2 2 1 1 1 1 1 1 1 0 0 0 0 0 0 0 0 0 0 0 0 0 0 0 0 0 0 0 0 0
0 0 0 0 0 0 0 0 0 1 1 1 1 1 1 1 1 1 1 1 1 1 1 0 0 0 0 0 0 0 0 0 0 0 0 0 0 0 0 0 0 0 0
0 0 0 0 0 0 0 0 0 0 0 1 1 1 1 1 0 0 1 1 1 1 1 1 0 0 0 0 0 0 0 0 0 0 0 0 0 0 0 0 0 0 0
0 0 0 0 0 0 0 0 0 0 0 0 0 1 1 0 0 0 0 1 1 1 1 1 0 0 0 0 0 0 0 0 0 0 0 0 0 0 0 0 0 0 0
0 0 0 0 0 0 0 0 0 0 0 0 0 0 0 0 0 0 0 0 0 0 1 1 0 0 0 0 0 0 0 0 0 0 0 0 0 0 0 0 0 0 0
0 0 0 0 0 0 0 0 0 0 0 0 0 0 0 0 0 0 0 0 0 0 0 0 0 0 0 0 0 0 0 0 0 0 0 0 0 0 0 0 0 0 0
0 0 0 0 0 0 0 0 0 0 0 0 0 0 0 0 0 0 0 0 0 0 0 0 0 0 0 0 0 0 0 0 0 0 0 0 0 0 0 0 0 0 0
0 0 0 0 0 0 0 0 0 0 0 0 0 0 0 0 0 0 0 0 0 0 0 0 0 0 0 0 0 0 0 0 0 0 0 0 0 0 0 0 0 0 0
0 0 0 0 0 0 0 0 0 0 0 0 0 0 0 0 0 0 0 0 0 0 0 0 0 0 0 0 0 0 0 0 0 0 0 0 0 0 0 0 0 0 0
0 0 0 0 0 0 0 0 0 0 0 0 0 0 0 0 0 0 0 0 0 0 0 0 0 0 0 0 0 0 0 0 0 0 0 0 0 0 0 0 0 0 0
0 0 0 0 0 0 0 0 0 0 0 0 0 0 0 0 0 0 0 0 0 0 0 0 0 0 0 0 0 0 0 0 0 0 0 0 0 0 0 0 0 0 0
0 0 0 0 0 0 0 0 0 0 0 0 0 0 0 0 0 0 0 0 0 0 0 0 0 0 0 0 0 0 0 0 0 0 0 0 0 0 0 0 0 0 0
0 0 0 0 0 0 0 0 0 0 0 0 0 0 0 0 0 0 0 0 0 0 0 0 0 0 0 0 0 0 0 0 0 0 0 0 0 0 0 0 0 0 0
0 0 0 0 0 0 0 0 0 0 0 0 0 0 0 0 0 0 0 0 0 0 0 0 0 0 0 0 0 0 0 0 0 0 0 0 0 0 0 0 0 0 0
0 0 0 0 0 0 0 0 0 0 0 0 0 0 0 0 0 0 0 0 0 0 0 0 0 0 0 0 0 0 0 0 0 0 0 0 0 0 0 0 0 0 0
0 0 0 0 0 0 0 0 0 0 0 0 0 0 0 0 0 0 0 0 0 0 0 0 0 0 0 0 0 0 0 0 0 0 0 0 0 0 0 0 0 0 0
0 0 0 0 0 0 0 0 0 0 0 0 0 0 0 0 0 0 0 0 0 0 0 0 0 0 0 0 0 0 0 0 0 0 0 0 0 0 0 0 0 0 0
0 0 0 0 0 0 0 0 0 0 0 0 0 0 0 0 0 0 0 0 0 0 0 0 0 0 0 0 0 0 0 0 0 0 0 0 0 0 0 0 0 0 0
0 0 0 0 0 0 0 0 0 0 0 0 0 0 0 0 0 0 0 0 0 0 0 0 0 0 0 0 0 0 0 0 0 0 0 0 0 0 0 0 0 0 0
Wind_Speed
5 4 2 1 0 2 3 3 3 4 5 5 4 4 4 4 4 4 4 4 6 6 7 7 8 8 7 7 7 7 8 7 9 6 3 3 4 6 5 7 8 9 10
3 2 1 1 2 3 3 3 4 4 4 4 4 4 3 3 3 3 3 4 5 5 6 7 7 6 8 7 7 8 8 8 8 9 6 4 6 5 5 7 7 7 8
3 2 1 1 1 2 2 2 3 3 4 4 4 4 4 4 3 3 3 4 4 4 4 5 5 6 7 6 7 7 6 7 7 7 6 4 3 3 4 5 7 6 7
3 3 3 2 1 1 1 0 2 3 3 4 4 4 4 4 4 4 4 4 3 3 3 4 4 4 4 4 4 5 5 6 6 6 5 4 3 3 3 5 5 6 6
7 6 6 5 4 4 3 1 1 2 4 5 5 6 5 5 5 4 5 4 4 4 4 3 1 2 5 3 3 3 3 4 4 4 4 4 4 4 4 4 4 4 5
8 8 7 6 6 5 4 3 2 2 3 4 5 5 5 5 2 3 6 6 6 5 4 3 3 4 4 4 3 4 4 3 3 3 3 4 4 5 4 4 3 3 4
9 8 8 7 7 6 6 5 4 3 3 2 3 3 5 2 2 5 8 7 6 5 4 3 2 2 4 4 6 7 6 4 4 3 3 2 2 3 4 5 4 4 3
9 9 8 8 7 7 7 6 6 5 4 3 3 3 2 1 1 5 7 10 7 6 5 5 4 4 2 4 3 4 3 4 4 5 4 2 1 2 3 3 3 3 2
10 9 9 8 8 8 8 7 6 5 5 5 5 4 3 3 4 3 6 7 5 5 4 3 3 3 4 2 5 4 4 3 3 5 6 4 3 1 2 3 3 3 3
9 9 9 8 8 8 8 7 6 5 6 5 6 6 6 6 8 6 5 3 4 3 2 2 1 3 2 2 6 4 3 1 2 3 5 6 6 6 7 6 3 3 2
7 7 8 8 8 8 7 7 7 6 6 6 6 6 7 8 9 10 8 2 1 1 2 1 2 2 1 1 5 3 4 4 2 2 1 1 1 1 3 3 3 3 3
5 6 7 7 7 6 7 7 7 7 7 7 7 7 6 7 9 9 9 7 6 1 1 1 4 4 2 2 2 4 2 3 2 1 1 0 0 0 0 1 1 2 3
5 6 6 6 6 7 7 7 7 7 6 6 6 6 6 6 6 7 7 7 7 4 5 7 6 4 2 3 5 2 2 1 1 1 1 2 2 2 2 1 2 2 1
5 5 5 6 6 7 6 6 6 7 6 6 6 6 6 6 7 6 5 4 4 4 4 5 5 4 3 3 2 1 2 4 3 2 2 2 1 1 2 2 2 2 1
4 4 5 5 5 5 6 6 6 7 7 6 6 5 6 7 8 10 7 6 5 4 3 4 4 4 4 4 4 4 3 3 2 2 2 2 2 2 2 2 2 2 2
4 4 4 4 4 4 4 6 6 5 7 9 10 9 6 8 8 10 11 11 10 7 5 6 6 5 5 4 4 4 5 5 4 3 3 3 2 2 2 2 2 2 3
2 3 3 3 4 4 4 4 4 5 5 9 12 13 12 10 10 9 9 10 10 8 7 6 6 6 5 5 5 5 5 5 4 4 4 4 4 3 3 2 3 3 3
1 2 2 2 3 3 4 4 4 4 4 6 8 11 11 11 12 10 7 5 8 8 7 7 6 6 5 5 5 5 5 5 5 5 5 5 5 4 4 4 3 4 4
2 2 2 2 2 3 3 3 4 4 5 4 4 6 5 5 8 10 8 7 7 7 6 6 6 6 5 5 5 5 5 5 6 5 5 5 5 5 4 4 4 4 4
2 2 1 1 2 2 2 3 3 4 4 4 5 5 4 5 6 7 7 6 6 6 6 6 5 6 5 5 5 5 4 5 5 5 5 5 4 4 5 5 5 5 5
3 4 4 2 2 2 2 2 3 3 3 4 4 5 6 4 5 6 5 5 5 5 5 5 5 5 5 5 5 5 5 5 5 5 5 5 5 4 4 4 5 5 5
3 3 3 2 2 2 1 2 2 2 3 3 3 4 3 3 4 4 4 4 4 4 4 4 4 4 4 4 5 5 4 5 5 5 5 5 5 5 5 5 5 5 5
3 3 3 3 2 3 2 2 2 1 2 2 2 2 2 2 3 3 3 3 3 3 3 3 4 4 4 4 4 4 5 5 5 5 5 5 5 4 4 5 6 6 6
4 4 4 3 3 3 2 2 2 2 1 1 2 2 2 2 2 3 2 2 3 3 3 3 4 5 5 4 3 4 5 6 7 5 5 5 5 5 4 5 5 6 5
4 4 4 4 4 3 3 3 3 3 2 2 1 2 2 2 2 2 2 2 2 3 3 3 3 3 5 6 6 6 8 7 7 8 5 4 5 5 5 5 5 5 5
4 4 4 4 4 4 3 3 3 3 2 2 2 2 2 2 2 2 1 2 2 2 3 3 4 4 5 5 7 8 7 7 7 9 6 4 5 5 5 4 5 5 5
Wind_Direction
70 67 63 39 42 240 228 203 185 174 173 171 166 175 169 174 179 183 210 209 227 233 232 235 237 235 233 229 228 228 229 229 242 246 221 237 223 232 196 223 227 207 201
47 62 66 235 226 228 211 191 182 176 179 182 165 181 168 180 189 196 202 210 223 236 239 241 242 237 235 233 228 228 229 229 237 247 232 218 233 243 241 224 222 224 229
21 21 12 218 227 227 198 179 186 190 193 193 193 195 190 199 198 205 208 211 217 230 239 247 251 246 242 236 233 234 233 232 230 239 237 214 218 225 237 239 231 229 236
49 53 52 49 46 32 60 197 228 231 231 231 223 221 214 214 218 213 214 215 211 218 229 241 248 255 259 246 239 239 238 235 227 230 233 215 206 202 221 226 226 217 227
59 57 49 44 40 35 32 2 316 287 265 252 241 235 227 230 231 231 223 225 220 214 218 222 219 6 3 335 310 276 242 232 226 225 227 217 204 189 210 217 230 224 231
56 52 44 45 43 33 26 20 7 331 292 270 254 244 236 233 168 236 258 229 226 221 218 212 167 195 184 217 271 312 316 284 257 236 235 232 223 208 201 199 212 217 228
55 51 45 43 41 35 32 31 22 9 346 310 287 270 255 232 167 221 239 251 236 235 232 209 198 206 234 220 192 211 226 231 264 283 259 243 237 206 194 198 206 216 227
51 49 44 41 42 39 37 32 22 17 15 359 348 333 309 359 285 249 229 240 234 226 227 232 226 219 217 294 263 244 243 210 216 242 258 258 249 199 198 202 198 210 227
46 43 41 39 38 35 34 31 25 24 27 23 19 10 1 25 15 303 245 232 229 225 225 239 266 261 100 288 273 265 258 234 200 252 301 317 346 286 265 223 202 206 220
44 43 43 41 39 35 33 31 28 32 36 36 35 26 25 28 25 6 298 243 229 216 212 205 85 331 49 263 267 276 281 292 257 206 219 219 228 209 214 240 238 240 247
43 43 41 40 40 35 34 35 35 37 42 44 44 38 36 30 31 24 4 324 283 220 184 178 106 66 26 296 289 322 7 331 303 294 284 224 221 204 205 232 243 254 262
44 44 42 39 36 34 37 36 37 36 38 37 39 40 36 34 29 27 26 19 354 48 87 94 89 84 72 26 359 44 11 288 298 299 276 263 260 65 359 336 294 263 277
44 43 40 44 45 38 35 35 35 34 33 31 30 29 26 24 29 35 41 42 23 34 60 62 69 74 134 111 79 24 281 310 8 356 19 42 37 33 36 22 359 350 323
37 36 38 42 47 51 42 38 37 31 30 31 27 22 21 27 20 12 23 53 75 81 90 107 113 84 71 71 106 77 37 35 17 31 43 48 52 49 43 16 4 338 302
36 44 45 51 49 53 63 46 40 47 27 16 16 16 16 23 17 8 13 29 32 41 58 74 65 64 58 53 55 50 40 48 47 40 40 42 35 37 43 25 1 333 326
28 41 41 49 52 50 70 96 75 51 44 38 28 16 51 42 32 42 49 46 39 26 58 67 59 54 50 44 44 45 39 32 23 23 30 34 28 25 23 9 347 334 332
30 51 50 43 51 53 53 61 95 114 102 64 48 42 44 44 46 46 52 57 46 43 59 57 52 48 43 39 39 40 35 26 21 24 25 25 20 16 10 4 357 346 341
83 80 60 63 52 56 57 57 56 61 79 85 75 57 48 49 45 35 25 55 58 52 52 49 45 42 39 36 34 32 29 24 22 21 23 20 14 5 2 2 4 358 343
148 118 95 78 76 74 71 70 70 70 68 69 78 83 69 72 65 43 36 50 52 49 47 45 38 34 32 31 28 26 26 24 20 15 16 12 5 358 357 355 353 349 328
135 89 74 123 118 104 90 84 81 77 73 65 54 42 46 49 50 47 46 46 48 46 42 41 36 30 25 21 19 16 18 22 19 14 7 4 360 352 347 344 341 338 338
158 148 178 188 113 102 95 91 91 91 84 76 64 44 17 48 55 51 45 42 39 37 37 37 33 25 21 15 11 13 14 15 13 5 360 357 351 348 345 343 344 343 339
167 164 170 145 137 139 123 117 107 105 102 99 101 97 56 52 57 57 53 48 42 34 27 28 36 31 20 14 9 10 11 12 8 1 354 349 345 346 346 347 350 348 349
179 171 172 164 156 149 194 165 153 138 125 114 110 108 98 78 71 64 61 54 49 44 39 38 42 38 27 20 16 6 1 2 354 348 341 339 341 348 349 352 354 355 359
183 184 185 177 178 191 194 186 177 175 174 155 139 125 113 102 94 82 69 62 64 62 55 49 42 38 35 28 20 17 13 355 336 335 345 339 345 353 357 359 359 0 358
194 191 193 193 190 197 200 201 200 191 189 187 176 156 143 138 125 106 85 76 70 68 61 52 47 41 30 31 28 26 15 357 351 339 336 353 2 9 8 7 7 3 4
203 199 199 197 199 203 206 208 206 204 201 192 191 176 160 155 149 139 129 112 103 90 74 63 49 41 30 31 33 19 8 8 3 342 337 16 25 24 14 20 22 19 20